SSEC Globe Logo

Space Science and Engineering Center

Wisconsin State Observations

ASUS43 KMKX 041420                                              2021338 1420
RWRWI
WISCONSIN REGIONAL WEATHER ROUNDUP
NATIONAL WEATHER SERVICE MILWAUKEE/SULLIVAN WI
NOTE: "FAIR" INDICATES FEW OR NO CLOUDS BELOW 12,000 FEET WITH NO
SIGNIFICANT WEATHER AND/OR OBSTRUCTIONS TO VISIBILITY.

CITY           SKY/WX    TMP DP  RH WIND       PRES   REMARKS
SUPERIOR ARPT  PTCLDY    24  12  61 W8        30.23R WCI  14
ASHLAND        PTCLDY    24  12  60 W12       30.18R WCI  13
HAYWARD        PTCLDY    24  11  57 VRB6G20   30.21R WCI  17
SIREN          MOCLDY    26  15  61 W6        30.26R WCI  19
CUMBERLAND     MOCLDY    30  16  55 W9        30.23S WCI  22
RICE LAKE      MOCLDY    31  14  51 W7        30.25S WCI  24
CHETEK         MOCLDY    29  13  51 W7        30.24S WCI  22
LADYSMITH      NOT AVBL
EAU CLAIRE     MOCLDY    28  17  63 W8        30.26R WCI  20
MENOMONIE      NOT AVBL
NEW RICHMOND   MOCLDY    29  14  55 W7        30.29R WCI  22
OSCEOLA        MOCLDY    32  19  59 W7        30.32R WCI  26


CITY           SKY/WX    TMP DP  RH WIND       PRES   REMARKS
MANITOWISH WTR PTCLDY    22  11  64 W10G17    30.11R WCI  11
ARBOR VITAE    NOT AVBL
WOODRUFF       NOT AVBL
RHINELANDER    PTCLDY    23  11  60 W10G24    30.11R WCI  12
EAGLE RIVER    PTCLDY    22  11  62 W13G21    30.10R WCI  10
LAND O LAKES   CLOUDY    24  13  65 W12G18    30.10R WCI  13
PHILLIPS       MOCLDY    23  12  63 W6G16     30.16R WCI  16
TOMAHAWK       PTCLDY    25  13  60 W13       30.15R WCI  13
MEDFORD        MOCLDY    24  14  65 W10       30.18R WCI  14
MERRILL        PTCLDY    25  13  60 W7G16     30.16R WCI  17


CITY           SKY/WX    TMP DP  RH WIND       PRES   REMARKS
WAUSAU         PTCLDY    27  14  58 W13       30.16R WCI  16
MOSINEE        PTCLDY    25  14  63 W12       30.19S WCI  14
MARSHFIELD     PTCLDY    25  16  68 W12       30.20R WCI  14
STEVENS POINT  PTCLDY    28  13  54 W10       30.21R WCI  19
WAUPACA        CLEAR     30  17  59 W9        30.21R WCI  22
WAUTOMA        CLEAR     27  18  69 W9        30.24  WCI  18
WISC RAPIDS    PTCLDY    27  16  63 W9        30.23S WCI  18
CAMP DOUGLAS   MOCLDY    27  16  63 W8        30.26R WCI  18


CITY           SKY/WX    TMP DP  RH WIND       PRES   REMARKS
ANTIGO         CLEAR     24  13  63 W13G22    30.14R WCI  12
SHAWANO        CLEAR     30  16  56 W6        30.17R WCI  24
OCONTO         CLEAR     29  16  58 W9        30.17R WCI  20
STURGEON BAY   CLEAR     30  17  58 NW16G23   30.15R WCI  19
GREEN BAY      CLEAR     29  16  58 W9        30.17R WCI  20
MANITOWOC      PTCLDY    29  20  69 W10       30.19R WCI  20
APPLETON       PTCLDY    27  16  63 W12       30.17R WCI  16
CLINTONVILLE   CLEAR     30  14  51 W10       30.20R WCI  21
OSHKOSH        PTCLDY    28  18  66 W12G18    30.20R WCI  18


CITY           SKY/WX    TMP DP  RH WIND       PRES   REMARKS
LA CROSSE      CLOUDY    34  17  50 NW13G18   30.30R WCI  25
SPARTA         CLOUDY    29  17  61 W3        30.29R
VIROQUA        CLOUDY    29  22  74 NW7       30.28R WCI  22
BOSCOBEL       MOCLDY    30  27  88 SW3       30.31R
PRAIRIE DU CHI CLOUDY    31  25  79 CALM      30.32S
PLATTEVILLE    NOT AVBL

CITY           SKY/WX    TMP DP  RH WIND       PRES   REMARKS
REEDSBURG      CLOUDY    30  15  53 NW3       30.27R
BARABOO/DELLS  CLOUDY    29  14  54 W5        30.26R WCI  24
LONE ROCK      CLOUDY    29  25  85 W5        30.29R WCI  24
MINERAL POINT  NOT AVBL
MADISON        MOCLDY    29  20  69 W6        30.26R WCI  23
MIDDLETON      CLOUDY    29  24  81 CALM      30.27S
WATERTOWN      MOCLDY    29  19  65 W6        30.24F WCI  23
MONROE         MOCLDY    29  26  88 NW8       30.27R WCI  21
JANESVILLE     PTCLDY    28  28 100 CALM      30.28R


CITY           SKY/WX    TMP DP  RH WIND       PRES   REMARKS
MILWAUKEE      MOCLDY    34  21  59 NW12      30.26R WCI  25
WAUKESHA       CLEAR     27  21  80 W9        30.25R WCI  17
MILWAUKEE/TIMM CLEAR     28  21  74 W6        30.26R WCI  22
RACINE         PTCLDY    32  25  75 W7        30.27R WCI  26
KENOSHA        PTCLDY    32  27  81 W8        30.25R WCI  25
FOND DU LAC    PTCLDY    33  17  51 W10       30.21R WCI  25
SHEBOYGAN      PTCLDY    31  19  61 NW7       30.20R WCI  24
WEST BEND      PTCLDY    28  19  69 W9        30.22R WCI  20
JUNEAU         PTCLDY    27  19  71 CALM      30.25S
LSZ147-162-041500-
LAKE SUPERIOR

STATION/POSITION TIME  TEMP    WIND        PRES    WAVE
                       AIR SEA DIR/SP/G            HT/PER
                 (UTC) (F)     (DEG/KT/KT) (MB)    (FT/S)
DEVILS ISLAND    1400   27     290/ 25/ 33 1021.6R
PORT WING        1340   27     280/ 22/ 28 1022.0S
SAXON HARBOR     1330   27     280/  9/ 15 1021.0R

LMZ867-665-643>646-041500-
LAKE MICHIGAN

STATION/POSITION TIME  TEMP    WIND        PRES    WAVE
                       AIR SEA DIR/SP/G            HT/PER
                 (UTC) (F)     (DEG/KT/KT) (MB)    (FT/S)
NORTHPORT PIER   1340   32     250/ 10/ 17 1020.3R
KEWAUNEE LAKESHO 1342   30     290/  5/  9 1020.1R
SHEBOYGAN LAKESH 1400   31     290/ 13/ 15 1023.4R
PORT WASHINGTON  1340   31     290/  4/ 10 1024.7R
MILWAUKEE LAKESH 1400   33     300/  8/ 11   N/A
S MID LAKE BUOY  1400   39 46  310/ 19/ 23 1023.7
KENOSHA   LAKESH 1400   32     280/ 10/ 13 1024.7
TC  - TEMPERATURE IN CELSIUS
VSB - VISIBILITY IN STATUTE MILES
WCI - WIND CHILL INDEX
HX  - HEAT INDEX